NSZ2024 ENBR-EYPA

Flight info

Callsign NSZ2024
Flight time 1h 31m
Altitude 37000
Route TINIG DCT BOMGU DCT NEFYN DCT VEDEN DCT TIRIN
Aircraft B738/M-SADE3GHIJ1LRWXY/LB1

Departure

Time 2026-04-21 14:21
Airport Bergen Airport, Flesland (ENBR)

Arrival

Time 2026-04-21 15:52
Airport Palanga International Airport (EYPA)
Time Latitude Longitude Altitude Speed Heading
2026-04-21 13:57 60.28930 5.22551 172 ft 0 kts 107°
2026-04-21 14:15 60.28930 5.22547 172 ft 2 kts 107°
2026-04-21 14:15 60.28939 5.22497 170 ft 4 kts 115°
2026-04-21 14:15 60.28952 5.22449 168 ft 4 kts 125°
2026-04-21 14:16 60.28966 5.22414 166 ft 1 kts 136°
2026-04-21 14:16 60.28966 5.22413 166 ft 1 kts 136°
2026-04-21 14:18 60.28962 5.22415 166 ft 2 kts 164°
2026-04-21 14:18 60.28937 5.22356 164 ft 10 kts 236°
2026-04-21 14:18 60.28872 5.22293 161 ft 12 kts 169°
2026-04-21 14:19 60.28817 5.22313 161 ft 13 kts 169°
2026-04-21 14:19 60.28728 5.22346 162 ft 11 kts 171°
2026-04-21 14:19 60.28682 5.22318 163 ft 5 kts 226°
2026-04-21 14:19 60.28666 5.22240 162 ft 8 kts 257°
2026-04-21 14:20 60.28645 5.22072 161 ft 8 kts 288°
2026-04-21 14:20 60.28663 5.22049 161 ft 0 kts 346°
2026-04-21 14:20 60.28696 5.22035 161 ft 29 kts 349°
2026-04-21 14:20 60.29199 5.21865 159 ft 115 kts 350°
2026-04-21 14:21 60.30222 5.21527 358 ft 169 kts 349°
2026-04-21 14:21 60.31323 5.21153 1704 ft 152 kts 350°
2026-04-21 14:21 60.32382 5.20822 2574 ft 161 kts 353°
2026-04-21 14:21 60.33502 5.20494 3424 ft 163 kts 357°
2026-04-21 14:22 60.34639 5.21160 3929 ft 190 kts 39°
2026-04-21 14:22 60.35305 5.23522 4349 ft 208 kts 81°
2026-04-21 14:22 60.35047 5.26521 4723 ft 232 kts 115°
2026-04-21 14:22 60.34180 5.29388 5255 ft 249 kts 120°
2026-04-21 14:23 60.33180 5.32482 5699 ft 271 kts 121°
2026-04-21 14:23 60.32141 5.35696 6591 ft 274 kts 122°
2026-04-21 14:23 60.31113 5.38922 7579 ft 274 kts 122°
2026-04-21 14:23 60.30079 5.42201 8416 ft 279 kts 122°
2026-04-21 14:24 60.29038 5.45528 9285 ft 283 kts 122°
2026-04-21 14:24 60.27983 5.48924 10093 ft 288 kts 122°
2026-04-21 14:24 60.26913 5.52382 10871 ft 295 kts 122°
2026-04-21 14:24 60.25801 5.55984 11116 ft 319 kts 122°
2026-04-21 14:25 60.24589 5.59912 11447 ft 338 kts 122°
2026-04-21 14:25 60.23329 5.63997 12088 ft 345 kts 122°
2026-04-21 14:25 60.22059 5.68113 12928 ft 347 kts 122°
2026-04-21 14:25 60.20777 5.72262 13683 ft 352 kts 122°
2026-04-21 14:26 60.19476 5.76465 14455 ft 355 kts 122°
2026-04-21 14:26 60.18163 5.80705 15182 ft 358 kts 122°
2026-04-21 14:26 60.16855 5.84917 15921 ft 361 kts 122°
2026-04-21 14:26 60.15518 5.89216 16637 ft 364 kts 122°
2026-04-21 14:27 60.14170 5.93545 17341 ft 367 kts 123°
2026-04-21 14:27 60.12809 5.97906 18041 ft 370 kts 122°
2026-04-21 14:27 60.11431 6.02311 18763 ft 373 kts 122°
2026-04-21 14:27 60.10041 6.06749 19356 ft 377 kts 123°
2026-04-21 14:28 60.08639 6.11216 19932 ft 380 kts 123°
2026-04-21 14:28 60.07238 6.15671 20532 ft 383 kts 123°
2026-04-21 14:28 60.05808 6.20210 21138 ft 385 kts 123°
2026-04-21 14:28 60.04373 6.24760 21738 ft 388 kts 124°
2026-04-21 14:29 60.02922 6.29349 22298 ft 391 kts 124°
2026-04-21 14:29 60.01476 6.33914 22872 ft 393 kts 124°
2026-04-21 14:29 60.00151 6.38724 23477 ft 397 kts 118°
2026-04-21 14:29 59.98974 6.43741 24007 ft 400 kts 117°
2026-04-21 14:30 59.97827 6.48840 24443 ft 404 kts 117°
2026-04-21 14:30 59.96678 6.53984 24877 ft 407 kts 117°
2026-04-21 14:30 59.95514 6.59164 25325 ft 409 kts 117°
2026-04-21 14:30 59.94334 6.64362 25756 ft 412 kts 117°
2026-04-21 14:31 59.93153 6.69515 26147 ft 414 kts 117°
2026-04-21 14:31 59.91942 6.74760 26538 ft 417 kts 118°
2026-04-21 14:31 59.90719 6.80026 26949 ft 420 kts 118°
2026-04-21 14:31 59.89480 6.85335 27367 ft 422 kts 118°
2026-04-21 14:32 59.88230 6.90677 27782 ft 425 kts 118°
2026-04-21 14:32 59.86990 6.95957 28145 ft 428 kts 118°
2026-04-21 14:32 59.85724 7.01337 28520 ft 430 kts 118°
2026-04-21 14:32 59.84448 7.06747 28878 ft 432 kts 118°
2026-04-21 14:33 59.83163 7.12182 29255 ft 435 kts 118°
2026-04-21 14:33 59.81866 7.17651 29609 ft 437 kts 118°
2026-04-21 14:33 59.80579 7.23070 29948 ft 439 kts 118°
2026-04-21 14:33 59.79266 7.28579 30267 ft 442 kts 118°
2026-04-21 14:34 59.77944 7.34112 30591 ft 444 kts 118°
2026-04-21 14:34 59.76612 7.39675 30892 ft 446 kts 118°
2026-04-21 14:34 59.75277 7.45239 31274 ft 445 kts 118°
2026-04-21 14:34 59.73949 7.50764 31699 ft 443 kts 118°
2026-04-21 14:35 59.72619 7.56277 32067 ft 442 kts 118°
2026-04-21 14:35 59.71308 7.61702 32348 ft 442 kts 118°
2026-04-21 14:35 59.69976 7.67194 32691 ft 442 kts 117°
2026-04-21 14:35 59.68643 7.72676 33072 ft 441 kts 117°
2026-04-21 14:36 59.67309 7.78146 33438 ft 440 kts 117°
2026-04-21 14:36 59.65975 7.83609 33768 ft 440 kts 117°
2026-04-21 14:36 59.64651 7.89013 34099 ft 439 kts 117°
2026-04-21 14:36 59.63324 7.94417 34617 ft 433 kts 117°
2026-04-21 14:37 59.62007 7.99768 34933 ft 432 kts 117°
2026-04-21 14:37 59.60702 8.05057 35085 ft 435 kts 117°
2026-04-21 14:37 59.59368 8.10450 35233 ft 437 kts 117°
2026-04-21 14:37 59.58031 8.15842 35495 ft 436 kts 117°
2026-04-21 14:38 59.56699 8.21198 35760 ft 435 kts 117°
2026-04-21 14:38 59.55360 8.26572 35981 ft 436 kts 116°
2026-04-21 14:38 59.54018 8.31947 36204 ft 436 kts 116°
2026-04-21 14:38 59.52674 8.37312 36418 ft 436 kts 116°
2026-04-21 14:39 59.51344 8.42612 36619 ft 436 kts 116°
2026-04-21 14:39 59.49997 8.47967 36873 ft 436 kts 116°
2026-04-21 14:39 59.48651 8.53303 37128 ft 435 kts 116°
2026-04-21 14:39 59.47304 8.58632 37374 ft 434 kts 116°
2026-04-21 14:40 59.45954 8.63959 37415 ft 437 kts 116°
2026-04-21 14:40 59.43212 8.74740 37422 ft 441 kts 116°
2026-04-21 14:41 59.40483 8.85417 37421 ft 438 kts 116°
2026-04-21 14:41 59.37743 8.96084 37416 ft 435 kts 116°
2026-04-21 14:42 59.35030 9.06599 37430 ft 433 kts 116°
2026-04-21 14:42 59.32299 9.17131 37420 ft 432 kts 116°
2026-04-21 14:43 59.29565 9.27627 37420 ft 431 kts 116°
2026-04-21 14:43 59.26846 9.38020 37417 ft 432 kts 116°
2026-04-21 14:44 59.24087 9.48512 37424 ft 434 kts 116°
2026-04-21 14:44 59.21312 9.59022 37422 ft 435 kts 116°
2026-04-21 14:45 59.18534 9.69491 37417 ft 437 kts 116°
2026-04-21 14:45 59.15718 9.80049 37412 ft 438 kts 116°
2026-04-21 14:46 59.12904 9.90555 37405 ft 440 kts 116°
2026-04-21 14:46 59.10059 10.01125 37405 ft 440 kts 116°
2026-04-21 14:47 59.07208 10.11672 37403 ft 440 kts 116°
2026-04-21 14:47 59.04361 10.22150 37420 ft 440 kts 116°
2026-04-21 14:48 59.01494 10.32658 37414 ft 439 kts 116°
2026-04-21 14:48 58.98641 10.43066 37418 ft 438 kts 116°
2026-04-21 14:49 58.95780 10.53458 37413 ft 437 kts 116°
2026-04-21 14:49 58.92908 10.63846 37414 ft 436 kts 117°
2026-04-21 14:50 58.90515 10.72464 37409 ft 436 kts 116°
2026-04-21 14:50 58.87370 10.84654 37418 ft 434 kts 114°
2026-04-21 14:51 58.84742 10.95204 37410 ft 434 kts 114°
2026-04-21 14:51 58.82097 11.05709 37398 ft 434 kts 114°
2026-04-21 14:52 58.79443 11.16117 37403 ft 433 kts 114°
2026-04-21 14:52 58.76765 11.26542 37394 ft 433 kts 114°
2026-04-21 14:53 58.74089 11.36903 37391 ft 433 kts 115°
2026-04-21 14:53 58.71414 11.47218 37392 ft 433 kts 114°
2026-04-21 14:54 58.68707 11.57603 37380 ft 433 kts 115°
2026-04-21 14:54 58.65998 11.67953 37382 ft 433 kts 115°
2026-04-21 14:55 58.63297 11.78224 37384 ft 433 kts 115°
2026-04-21 14:55 58.60564 11.88566 37383 ft 433 kts 115°
2026-04-21 14:56 58.57829 11.98872 37383 ft 433 kts 115°
2026-04-21 14:56 58.55101 12.09103 37384 ft 433 kts 115°
2026-04-21 14:57 58.52342 12.19406 37377 ft 434 kts 115°
2026-04-21 14:57 58.49591 12.29628 37377 ft 434 kts 115°
2026-04-21 14:58 58.46819 12.39884 37374 ft 434 kts 115°
2026-04-21 14:58 58.44038 12.50127 37374 ft 434 kts 115°
2026-04-21 14:59 58.41266 12.60292 37386 ft 434 kts 115°
2026-04-21 14:59 58.38467 12.70510 37377 ft 434 kts 115°
2026-04-21 15:00 58.35676 12.80650 37375 ft 433 kts 115°
2026-04-21 15:00 58.32868 12.90809 37378 ft 432 kts 115°
2026-04-21 15:01 58.30056 13.00936 37378 ft 432 kts 115°
2026-04-21 15:01 58.27258 13.10971 37387 ft 431 kts 115°
2026-04-21 15:02 58.24436 13.21048 37363 ft 431 kts 115°
2026-04-21 15:02 58.21614 13.31076 37366 ft 431 kts 115°
2026-04-21 15:03 58.18800 13.41034 37363 ft 430 kts 115°
2026-04-21 15:03 58.15961 13.51038 37361 ft 430 kts 115°
2026-04-21 15:04 58.13115 13.61022 37356 ft 430 kts 116°
2026-04-21 15:04 58.10281 13.70925 37356 ft 430 kts 115°
2026-04-21 15:05 58.07420 13.80876 37356 ft 431 kts 115°
2026-04-21 15:05 58.03103 13.95813 37354 ft 431 kts 116°
2026-04-21 15:06 58.00701 14.04081 37347 ft 432 kts 116°
2026-04-21 15:06 57.97805 14.14011 37333 ft 432 kts 116°
2026-04-21 15:07 57.94896 14.23944 37343 ft 433 kts 116°
2026-04-21 15:07 57.91992 14.33816 37335 ft 433 kts 116°
2026-04-21 15:08 57.89057 14.43751 37334 ft 433 kts 116°
2026-04-21 15:08 57.86132 14.53611 37329 ft 434 kts 116°
2026-04-21 15:09 57.83176 14.63531 37332 ft 434 kts 116°
2026-04-21 15:09 57.80243 14.73336 37345 ft 433 kts 116°
2026-04-21 15:10 57.77275 14.83216 37334 ft 434 kts 116°
2026-04-21 15:10 57.74304 14.93061 37328 ft 434 kts 116°
2026-04-21 15:11 57.71339 15.02849 37320 ft 434 kts 116°
2026-04-21 15:11 57.68348 15.12679 37319 ft 434 kts 116°
2026-04-21 15:12 57.65366 15.22442 37314 ft 434 kts 116°
2026-04-21 15:12 57.62363 15.32234 37326 ft 434 kts 116°
2026-04-21 15:13 57.59342 15.42047 37321 ft 435 kts 116°
2026-04-21 15:13 57.56401 15.51829 37312 ft 434 kts 114°
2026-04-21 15:14 57.53569 15.61779 37317 ft 434 kts 114°
2026-04-21 15:14 57.50760 15.71656 37311 ft 434 kts 114°
2026-04-21 15:15 57.47910 15.81566 37333 ft 434 kts 114°
2026-04-21 15:15 57.45056 15.91407 37318 ft 434 kts 114°
2026-04-21 15:16 57.42179 16.01274 37312 ft 434 kts 114°
2026-04-21 15:16 57.39300 16.11108 37316 ft 434 kts 114°
2026-04-21 15:17 57.36408 16.20943 37316 ft 433 kts 115°
2026-04-21 15:17 57.33518 16.30734 37345 ft 433 kts 115°
2026-04-21 15:18 57.30629 16.40481 37323 ft 434 kts 115°
2026-04-21 15:18 57.27714 16.50271 37324 ft 434 kts 115°
2026-04-21 15:19 57.24792 16.60045 37322 ft 434 kts 115°
2026-04-21 15:19 57.21884 16.69733 37321 ft 434 kts 115°
2026-04-21 15:20 57.18944 16.79484 37322 ft 434 kts 115°
2026-04-21 15:20 57.15995 16.89229 37322 ft 435 kts 115°
2026-04-21 15:21 57.13055 16.98901 37320 ft 435 kts 115°
2026-04-21 15:21 57.10083 17.08639 37316 ft 435 kts 115°
2026-04-21 15:22 57.07116 17.18317 37313 ft 435 kts 115°
2026-04-21 15:22 57.04133 17.28010 37314 ft 435 kts 115°
2026-04-21 15:23 57.01158 17.37640 37314 ft 436 kts 115°
2026-04-21 15:23 56.98157 17.47310 37309 ft 436 kts 115°
2026-04-21 15:24 56.95148 17.56970 37315 ft 436 kts 115°
2026-04-21 15:24 56.92142 17.66578 37309 ft 436 kts 115°
2026-04-21 15:25 56.89116 17.76213 37309 ft 436 kts 115°
2026-04-21 15:25 56.86082 17.85834 37327 ft 436 kts 115°
2026-04-21 15:26 56.83054 17.95400 36950 ft 441 kts 115°
2026-04-21 15:26 56.81511 18.00260 36489 ft 439 kts 115°
2026-04-21 15:26 56.79991 18.05032 35937 ft 437 kts 115°
2026-04-21 15:27 56.78463 18.09821 35330 ft 437 kts 115°
2026-04-21 15:27 56.76931 18.14613 34735 ft 437 kts 114°
2026-04-21 15:27 56.75401 18.19393 34100 ft 437 kts 114°
2026-04-21 15:27 56.73862 18.24192 33378 ft 436 kts 114°
2026-04-21 15:28 56.72343 18.28917 32722 ft 435 kts 114°
2026-04-21 15:28 56.70806 18.33688 32051 ft 434 kts 114°
2026-04-21 15:28 56.69279 18.38416 31505 ft 431 kts 114°
2026-04-21 15:28 56.67766 18.43090 31028 ft 426 kts 114°
2026-04-21 15:29 56.66267 18.47712 30550 ft 422 kts 114°
2026-04-21 15:29 56.64801 18.52227 30048 ft 417 kts 114°
2026-04-21 15:29 56.63328 18.56755 29550 ft 412 kts 114°
2026-04-21 15:29 56.61877 18.61207 29090 ft 406 kts 114°
2026-04-21 15:30 56.60442 18.65604 28618 ft 401 kts 114°
2026-04-21 15:30 56.59028 18.69931 28159 ft 396 kts 114°
2026-04-21 15:30 56.57632 18.74201 27710 ft 392 kts 114°
2026-04-21 15:30 56.56264 18.78376 27235 ft 388 kts 114°
2026-04-21 15:31 56.54885 18.82573 26807 ft 384 kts 114°
2026-04-21 15:31 56.53522 18.86716 26373 ft 380 kts 114°
2026-04-21 15:31 56.52317 18.90944 25910 ft 373 kts 108°
2026-04-21 15:31 56.51285 18.95174 25483 ft 369 kts 107°
2026-04-21 15:32 56.50288 18.99440 25054 ft 366 kts 107°
2026-04-21 15:32 56.49303 19.03678 24632 ft 364 kts 107°
2026-04-21 15:32 56.48317 19.07888 24203 ft 362 kts 107°
2026-04-21 15:32 56.47330 19.12069 23764 ft 360 kts 107°
2026-04-21 15:33 56.46342 19.16215 23266 ft 358 kts 107°
2026-04-21 15:33 56.45356 19.20327 22839 ft 354 kts 108°
2026-04-21 15:33 56.44386 19.24348 22412 ft 351 kts 108°
2026-04-21 15:33 56.43409 19.28384 21986 ft 348 kts 108°
2026-04-21 15:34 56.42439 19.32383 21579 ft 345 kts 108°
2026-04-21 15:34 56.41474 19.36357 21177 ft 344 kts 108°
2026-04-21 15:34 56.40522 19.40270 20757 ft 344 kts 108°
2026-04-21 15:34 56.39554 19.44240 20346 ft 348 kts 108°
2026-04-21 15:35 56.38566 19.48298 19934 ft 355 kts 109°
2026-04-21 15:35 56.37567 19.52380 19499 ft 354 kts 109°
2026-04-21 15:35 56.36571 19.56432 19072 ft 351 kts 109°
2026-04-21 15:35 56.35581 19.60450 18649 ft 349 kts 109°
2026-04-21 15:36 56.34609 19.64390 18198 ft 346 kts 109°
2026-04-21 15:36 56.33632 19.68343 17746 ft 343 kts 109°
2026-04-21 15:36 56.32663 19.72261 17335 ft 340 kts 109°
2026-04-21 15:36 56.31702 19.76136 16927 ft 337 kts 109°
2026-04-21 15:37 56.30749 19.79978 16514 ft 334 kts 109°
2026-04-21 15:37 56.29801 19.83792 16045 ft 333 kts 109°
2026-04-21 15:37 56.28849 19.87620 15574 ft 334 kts 109°
2026-04-21 15:37 56.27901 19.91427 15131 ft 333 kts 109°
2026-04-21 15:38 56.26965 19.95171 14721 ft 331 kts 109°
2026-04-21 15:38 56.26022 19.98941 14303 ft 329 kts 109°
2026-04-21 15:38 56.25080 20.02695 13896 ft 327 kts 109°
2026-04-21 15:38 56.24146 20.06418 13458 ft 325 kts 109°
2026-04-21 15:39 56.23214 20.10121 13045 ft 323 kts 109°
2026-04-21 15:39 56.22289 20.13793 12647 ft 321 kts 109°
2026-04-21 15:39 56.21379 20.17398 12259 ft 318 kts 109°
2026-04-21 15:39 56.20465 20.21011 11877 ft 316 kts 109°
2026-04-21 15:40 56.19558 20.24596 11497 ft 314 kts 109°
2026-04-21 15:40 56.18668 20.28107 11121 ft 312 kts 110°
2026-04-21 15:40 56.17770 20.31644 10744 ft 310 kts 110°
2026-04-21 15:40 56.16876 20.35159 10468 ft 305 kts 110°
2026-04-21 15:41 56.15783 20.38392 10304 ft 306 kts 129°
2026-04-21 15:41 56.14110 20.40864 10084 ft 315 kts 141°
2026-04-21 15:41 56.12308 20.43091 9818 ft 320 kts 142°
2026-04-21 15:41 56.10463 20.45325 9452 ft 318 kts 142°
2026-04-21 15:42 56.08635 20.47532 9104 ft 315 kts 142°
2026-04-21 15:42 56.06825 20.49718 8756 ft 312 kts 142°
2026-04-21 15:42 56.05026 20.51891 8415 ft 309 kts 142°
2026-04-21 15:42 56.03270 20.54012 8081 ft 307 kts 142°
2026-04-21 15:43 56.01507 20.56154 7743 ft 304 kts 142°
2026-04-21 15:43 55.99752 20.58289 7408 ft 302 kts 142°
2026-04-21 15:43 55.98036 20.60367 7083 ft 300 kts 142°
2026-04-21 15:43 55.96309 20.62457 6781 ft 298 kts 143°
2026-04-21 15:44 55.94612 20.64535 6516 ft 293 kts 143°
2026-04-21 15:44 55.92948 20.66597 6250 ft 289 kts 142°
2026-04-21 15:44 55.91294 20.68635 5980 ft 287 kts 142°
2026-04-21 15:44 55.89656 20.70657 5718 ft 283 kts 143°
2026-04-21 15:45 55.88070 20.72640 5458 ft 280 kts 142°
2026-04-21 15:45 55.86480 20.74623 5222 ft 278 kts 143°
2026-04-21 15:45 55.84911 20.76566 5019 ft 274 kts 142°
2026-04-21 15:45 55.83335 20.78481 4799 ft 272 kts 143°
2026-04-21 15:46 55.81782 20.80398 4594 ft 270 kts 142°
2026-04-21 15:46 55.80248 20.82344 4378 ft 271 kts 136°
2026-04-21 15:46 55.79246 20.85034 4031 ft 259 kts 99°
2026-04-21 15:46 55.79337 20.88064 3759 ft 238 kts 66°
2026-04-21 15:47 55.79846 20.90774 3606 ft 226 kts 70°
2026-04-21 15:47 55.80202 20.93356 3532 ft 208 kts 71°
2026-04-21 15:47 55.80519 20.95760 3415 ft 192 kts 71°
2026-04-21 15:47 55.80816 20.98007 3300 ft 184 kts 72°
2026-04-21 15:48 55.81106 21.00204 3128 ft 179 kts 72°
2026-04-21 15:48 55.81518 21.02215 2914 ft 167 kts 47°
2026-04-21 15:48 55.82411 21.03322 2779 ft 153 kts 16°
2026-04-21 15:48 55.83440 21.03810 2579 ft 153 kts 12°
2026-04-21 15:49 55.84479 21.04231 2418 ft 153 kts 12°
2026-04-21 15:49 55.85505 21.04641 2221 ft 148 kts 11°
2026-04-21 15:49 55.86478 21.05031 2081 ft 143 kts 11°
2026-04-21 15:49 55.87427 21.05417 1864 ft 133 kts 12°
2026-04-21 15:50 55.88302 21.05796 1671 ft 128 kts 12°
2026-04-21 15:50 55.89175 21.06191 1509 ft 130 kts 12°
2026-04-21 15:50 55.90062 21.06537 1373 ft 130 kts
2026-04-21 15:50 55.90942 21.06868 1174 ft 132 kts 10°
2026-04-21 15:51 55.91847 21.07215 992 ft 131 kts
2026-04-21 15:51 55.92739 21.07571 830 ft 132 kts 10°
2026-04-21 15:51 55.93633 21.07931 666 ft 133 kts
2026-04-21 15:51 55.94552 21.08272 454 ft 137 kts 12°
2026-04-21 15:52 55.95468 21.08654 256 ft 133 kts 10°
2026-04-21 15:52 55.96378 21.09005 80 ft 136 kts 11°
2026-04-21 15:52 55.96975 21.09245 38 ft 126 kts 14°
2026-04-21 15:52 55.97764 21.09563 37 ft 38 kts 13°
2026-04-21 15:53 55.97883 21.09625 35 ft 5 kts 312°
2026-04-21 15:53 55.97866 21.09592 37 ft 4 kts 191°
2026-04-21 15:53 55.97834 21.09582 37 ft 5 kts 190°
2026-04-21 15:53 55.97792 21.09567 37 ft 7 kts 191°
2026-04-21 15:54 55.97754 21.09552 37 ft 10 kts 192°
2026-04-21 15:54 55.97671 21.09519 37 ft 15 kts 192°
2026-04-21 15:54 55.97510 21.09455 37 ft 21 kts 193°
2026-04-21 15:54 55.97353 21.09394 37 ft 25 kts 192°
2026-04-21 15:55 55.97233 21.09346 37 ft 27 kts 192°
2026-04-21 15:55 55.97115 21.09355 37 ft 13 kts 135°
2026-04-21 15:55 55.97087 21.09504 37 ft 13 kts 108°
2026-04-21 15:55 55.97018 21.09537 37 ft 11 kts 194°
2026-04-21 15:56 55.96972 21.09585 37 ft 8 kts 111°
2026-04-21 15:56 55.96988 21.09663 37 ft 7 kts 25°
2026-04-21 15:56 55.97004 21.09650 37 ft 2 kts 311°
2026-04-21 15:56 55.97008 21.09633 37 ft 1 kts 292°
2026-04-21 15:57 55.97009 21.09632 37 ft 0 kts 292°